Weather History for Lakeville, MN

Change the Weather History Date:

Tuesday, February 5, 2013

  Actual Average Record
Temperature  
Mean Temperature 16 °F -  
Max Temperature 28 °F 23 °F 51 °F (2005)
Min Temperature 3 °F 4 °F -28 °F (1979)
Degree Days  
Heating Degree Days 50    
Moisture  
Dew Point 16 °F    
Average Humidity 84    
Maximum Humidity 100    
Minimum Humidity 69    
Precipitation  
Precipitation 0.04 in - - ()
Sea Level Pressure  
Sea Level Pressure 29.84 in    
Wind  
Wind Speed 9 mph (West)    
Max Wind Speed 16 mph    
Max Gust Speed 24 mph    
Visibility 8 miles    
Events Snow    
Averages and records for this station are not official NWS values.
T = Trace of Precipitation, MM = Missing Value Source: NWS Daily Summary

Daily Weather History Graph

Daily Weather History Graph

Search for Another Location

Airport:

Trip Planner

Search our weather history database for the weather conditions in past years. The results will help you decide how hot, cold, wet, or windy it might be!

Date:

Astronomy

Feb. 05, 2013 Rise Set
Actual Time 7:26 AM CST 5:27 PM CST
Civil Twilight 6:55 AM CST 5:58 PM CST
Nautical Twilight 6:21 AM CST 6:33 PM CST
Astronomical Twilight 5:47 AM CST 7:07 PM CST
Moon 3:13 AM CST (2/5) 12:41 PM CST (2/5)
Length of Visible Light 11h 02m
Length of Day
10h 01m
Waning Crescent, 26% of the Moon is Illuminated
Feb 5
Waning Crescent
Feb 10
New
Feb 17
First Quarter
Feb 25
Full
Mar 4
Last Quarter

Hourly Weather History & Observations

Time (CST) Temp. Windchill Dew Point Humidity Pressure Visibility Wind Dir Wind Speed Gust Speed Precip Events Conditions
12:07 AM 14.0 °F -0.8 °F 12.2 °F 93% 29.74 in 7.0 mi South 13.8 mph - N/A   Overcast
12:28 AM 15.8 °F 1.4 °F 12.2 °F 86% 29.72 in 5.0 mi South 13.8 mph 17.3 mph N/A   Overcast
12:47 AM 15.8 °F 0.3 °F 12.2 °F 86% 29.70 in 7.0 mi South 16.1 mph 20.7 mph N/A   Overcast
1:08 AM 15.8 °F 7.2 °F 12.2 °F 86% 29.71 in 10.0 mi SW 5.8 mph 20.7 mph N/A   Overcast
1:28 AM 17.6 °F 6.4 °F 14.0 °F 86% 29.70 in 10.0 mi SSW 9.2 mph - N/A   Overcast
1:47 AM 17.6 °F 7.3 °F 15.8 °F 93% 29.70 in 10.0 mi SSW 8.1 mph - N/A   Overcast
2:08 AM 19.4 °F 12.8 °F 15.8 °F 86% 29.69 in 10.0 mi SSW 4.6 mph - N/A   Overcast
2:27 AM 19.4 °F 14.3 °F 17.6 °F 93% 29.69 in 10.0 mi SW 3.5 mph - N/A   Mostly Cloudy
2:48 AM 19.4 °F 11.5 °F 15.8 °F 86% 29.68 in 10.0 mi SSW 5.8 mph - N/A   Clear
3:08 AM 19.4 °F 10.4 °F 17.6 °F 93% 29.67 in 10.0 mi SW 6.9 mph - N/A   Clear
3:27 AM 19.4 °F 12.8 °F 17.6 °F 93% 29.67 in 10.0 mi SW 4.6 mph - N/A   Clear
3:47 AM 19.4 °F 11.5 °F 17.6 °F 93% 29.66 in 10.0 mi SW 5.8 mph - N/A   Scattered Clouds
4:08 AM 21.2 °F 12.6 °F 17.6 °F 86% 29.66 in 10.0 mi SW 6.9 mph - N/A   Overcast
4:27 AM 21.2 °F 12.6 °F 19.4 °F 93% 29.66 in 10.0 mi WSW 6.9 mph - N/A   Overcast
4:47 AM 23.0 °F 14.7 °F 19.4 °F 86% 29.66 in 1.8 mi SW 6.9 mph - N/A Snow Light Snow
5:08 AM 21.2 °F 13.6 °F 21.2 °F 100% 29.65 in 0.5 mi SW 5.8 mph - 0.01 in Snow Snow
5:27 AM 23.0 °F 13.9 °F 21.2 °F 93% 29.65 in 1.2 mi SW 8.1 mph - 0.01 in Snow Light Snow
5:48 AM 23.0 °F 13.9 °F 21.2 °F 93% 29.65 in 0.5 mi SW 8.1 mph - 0.02 in Snow Snow
6:07 AM 23.0 °F 13.9 °F 21.2 °F 93% 29.65 in 0.5 mi SW 8.1 mph - 0.01 in Snow Snow
6:27 AM 23.0 °F 13.1 °F 21.2 °F 93% 29.65 in 1.0 mi WSW 9.2 mph - 0.02 in Snow Light Snow
6:48 AM 24.8 °F 15.3 °F 21.2 °F 86% 29.67 in 0.8 mi West 9.2 mph - 0.02 in Snow Snow
7:07 AM 24.8 °F 16.1 °F 23.0 °F 93% 29.69 in 5.0 mi West 8.1 mph - N/A Snow Light Snow
7:27 AM 24.8 °F 14.0 °F 23.0 °F 93% 29.68 in 4.0 mi West 11.5 mph - N/A   Overcast
7:48 AM 24.8 °F 15.3 °F 23.0 °F 93% 29.69 in 5.0 mi West 9.2 mph - N/A Snow Light Snow
8:07 AM 24.8 °F 16.1 °F 23.0 °F 93% 29.70 in 7.0 mi WNW 8.1 mph - N/A   Overcast
8:27 AM 26.6 °F 16.8 °F 24.8 °F 93% 29.72 in 7.0 mi WNW 10.4 mph - N/A Snow Light Snow
8:48 AM 26.6 °F 15.7 °F 24.8 °F 93% 29.72 in 10.0 mi WNW 12.7 mph - N/A   Overcast
9:07 AM 26.6 °F 15.7 °F 24.8 °F 93% 29.74 in 10.0 mi WNW 12.7 mph - N/A   Overcast
9:28 AM 28.4 °F 18.0 °F 24.8 °F 86% 29.74 in 10.0 mi WNW 12.7 mph 17.3 mph N/A   Overcast
9:47 AM 28.4 °F 17.0 °F 23.0 °F 80% 29.75 in 10.0 mi NW 15.0 mph - N/A   Overcast
10:07 AM 28.4 °F 17.5 °F 23.0 °F 80% 29.77 in 10.0 mi WNW 13.8 mph 24.2 mph N/A   Overcast
10:28 AM 28.4 °F 18.0 °F 23.0 °F 80% 29.78 in 10.0 mi NW 12.7 mph 17.3 mph N/A   Overcast
10:47 AM 28.4 °F 18.5 °F 23.0 °F 80% 29.79 in 10.0 mi NW 11.5 mph - N/A   Overcast
11:07 AM 28.4 °F 18.0 °F 23.0 °F 80% 29.81 in 10.0 mi NW 12.7 mph - N/A   Overcast
11:28 AM 28.4 °F 17.5 °F 21.2 °F 74% 29.81 in 10.0 mi NW 13.8 mph - N/A   Overcast
11:47 AM 28.4 °F 18.0 °F 21.2 °F 74% 29.82 in 10.0 mi NNW 12.7 mph - N/A   Overcast
12:07 PM 28.4 °F 17.0 °F 21.2 °F 74% 29.82 in 10.0 mi NW 15.0 mph - N/A   Overcast
12:28 PM 28.4 °F 18.5 °F 21.2 °F 74% 29.83 in 10.0 mi NNW 11.5 mph - N/A   Overcast
12:47 PM 28.4 °F 19.7 °F 21.2 °F 74% 29.84 in 10.0 mi North 9.2 mph - N/A   Overcast
1:07 PM 26.6 °F 16.2 °F 21.2 °F 80% 29.85 in 7.0 mi NNW 11.5 mph 17.3 mph N/A   Overcast
1:28 PM 26.6 °F 17.5 °F 21.2 °F 80% 29.86 in 7.0 mi NNW 9.2 mph - N/A   Overcast
1:47 PM 28.4 °F 18.0 °F 21.2 °F 74% 29.87 in 10.0 mi NNW 12.7 mph - N/A   Overcast
2:08 PM 26.6 °F 15.2 °F 19.4 °F 74% 29.88 in 10.0 mi NW 13.8 mph - N/A   Overcast
2:27 PM 26.6 °F 15.7 °F 19.4 °F 74% 29.89 in 10.0 mi NW 12.7 mph - N/A   Overcast
2:48 PM 26.6 °F 15.7 °F 17.6 °F 69% 29.90 in 10.0 mi NW 12.7 mph - N/A   Mostly Cloudy
3:07 PM 26.6 °F 15.7 °F 17.6 °F 69% 29.91 in 10.0 mi NNW 12.7 mph - N/A   Mostly Cloudy
3:27 PM 24.8 °F 13.4 °F 17.6 °F 74% 29.92 in 10.0 mi NW 12.7 mph - N/A   Scattered Clouds
3:47 PM 24.8 °F 14.6 °F 15.8 °F 69% 29.92 in 10.0 mi NW 10.4 mph - N/A   Clear
4:07 PM 24.8 °F 14.6 °F 15.8 °F 69% 29.94 in 10.0 mi WNW 10.4 mph - N/A   Clear
4:28 PM 23.0 °F 12.4 °F 15.8 °F 74% 29.95 in 10.0 mi WNW 10.4 mph - N/A   Clear
4:47 PM 21.2 °F 12.6 °F 14.0 °F 74% 29.95 in 10.0 mi WNW 6.9 mph - N/A   Clear
5:07 PM 19.4 °F 9.5 °F 12.2 °F 74% 29.96 in 10.0 mi West 8.1 mph - N/A   Clear
5:28 PM 17.6 °F 7.3 °F 10.4 °F 73% 29.98 in 10.0 mi WNW 8.1 mph - N/A   Clear
5:47 PM 17.6 °F 9.3 °F 10.4 °F 73% 29.98 in 10.0 mi WNW 5.8 mph - N/A   Clear
6:07 PM 17.6 °F 9.3 °F 10.4 °F 73% 29.98 in 10.0 mi WNW 5.8 mph - N/A   Clear
6:28 PM 17.6 °F 10.7 °F 10.4 °F 73% 29.99 in 10.0 mi West 4.6 mph - N/A   Clear
6:47 PM 14.0 °F 3.9 °F 8.6 °F 79% 30.01 in 10.0 mi West 6.9 mph - N/A   Clear
7:07 PM 15.8 °F 6.1 °F 10.4 °F 79% 30.02 in 10.0 mi West 6.9 mph - N/A   Clear
7:28 PM 12.2 °F 1.7 °F 10.4 °F 92% 30.03 in 10.0 mi WNW 6.9 mph - N/A   Clear
7:47 PM 14.0 °F 8.2 °F 10.4 °F 86% 30.04 in 10.0 mi West 3.5 mph - N/A   Clear
8:08 PM 12.2 °F 2.9 °F 10.4 °F 92% 30.04 in 10.0 mi West 5.8 mph - N/A   Clear
8:28 PM 10.4 °F -0.4 °F 8.6 °F 92% 30.04 in 7.0 mi WSW 6.9 mph - N/A   Clear
8:47 PM 10.4 °F -0.4 °F 8.6 °F 92% 30.06 in 10.0 mi WSW 6.9 mph - N/A   Clear
9:08 PM 6.8 °F -0.1 °F 5.0 °F 92% 30.06 in 10.0 mi West 3.5 mph - N/A   Clear
9:28 PM 6.8 °F -2.0 °F 3.2 °F 85% 30.06 in 10.0 mi West 4.6 mph - N/A   Clear
9:47 PM 6.8 °F -0.1 °F 5.0 °F 92% 30.07 in 10.0 mi West 3.5 mph - N/A   Clear
10:08 PM 8.6 °F - 6.8 °F 92% 30.06 in 10.0 mi Calm Calm - N/A   Clear
10:28 PM 6.8 °F - 5.0 °F 92% 30.05 in 2.5 mi Calm Calm - N/A   Clear
10:47 PM 6.8 °F -2.0 °F 5.0 °F 92% 30.06 in 5.0 mi WSW 4.6 mph - N/A   Clear
11:08 PM 6.8 °F - 3.2 °F 85% 30.06 in 5.0 mi Calm Calm - N/A   Clear
11:28 PM 3.2 °F - 1.4 °F 92% 30.06 in 2.5 mi Calm Calm - N/A   Clear
11:47 PM 5.0 °F -2.1 °F 3.2 °F 92% 30.07 in 3.0 mi SW 3.5 mph - N/A   Clear